TimePDT,TemperatureF,Dew PointF,Humidity,Sea Level PressureIn,VisibilityMPH,Wind Direction,Wind SpeedMPH,Gust SpeedMPH,PrecipitationIn,Events,Conditions,WindDirDegrees,DateUTC
12:53 AM,45.0,30.9,58,29.76,10.0,SSW,12.7,18.4,N/A,,Partly Cloudy,200,2013-09-25 07:53:00
1:53 AM,45.0,23.0,42,29.75,10.0,SSW,8.1,19.6,N/A,,Clear,210,2013-09-25 08:53:00
2:53 AM,44.1,25.0,47,29.76,10.0,SSW,8.1,-,N/A,,Clear,200,2013-09-25 09:53:00
3:53 AM,42.1,26.1,53,29.75,10.0,South,6.9,18.4,N/A,,Clear,180,2013-09-25 10:53:00
4:53 AM,41.0,27.0,57,29.76,10.0,SSE,4.6,-,N/A,,Clear,150,2013-09-25 11:53:00
5:53 AM,41.0,28.9,62,29.77,10.0,SSE,8.1,-,N/A,,Mostly Cloudy,150,2013-09-25 12:53:00
6:53 AM,42.1,27.0,55,29.77,10.0,South,4.6,-,N/A,,Overcast,170,2013-09-25 13:53:00
7:53 AM,41.0,28.9,62,29.79,10.0,SSW,9.2,-,N/A,,Partly Cloudy,200,2013-09-25 14:53:00
8:53 AM,42.1,30.0,62,29.79,10.0,South,13.8,-,N/A,,Scattered Clouds,190,2013-09-25 15:53:00
9:53 AM,46.0,28.0,50,29.79,10.0,South,13.8,20.7,N/A,,Scattered Clouds,190,2013-09-25 16:53:00
10:53 AM,48.0,25.0,41,29.78,10.0,South,12.7,20.7,N/A,,Clear,180,2013-09-25 17:53:00
11:53 AM,48.0,21.0,34,29.77,10.0,Variable,4.6,17.3,N/A,,Clear,0,2013-09-25 18:53:00
12:53 PM,48.9,19.9,32,29.77,10.0,Variable,6.9,-,N/A,,Clear,0,2013-09-25 19:53:00
1:53 PM,50.0,19.0,29,29.76,10.0,SSW,11.5,19.6,N/A,,Partly Cloudy,200,2013-09-25 20:53:00
2:53 PM,50.0,18.0,28,29.76,10.0,Variable,6.9,17.3,N/A,,Clear,0,2013-09-25 21:53:00
3:53 PM,48.0,21.0,34,29.77,10.0,SSW,9.2,16.1,N/A,,Partly Cloudy,210,2013-09-25 22:53:00
4:53 PM,48.0,21.9,36,29.76,10.0,SSW,9.2,-,N/A,,Clear,200,2013-09-25 23:53:00
5:53 PM,45.0,21.9,40,29.78,10.0,SW,8.1,-,N/A,,Clear,220,2013-09-26 00:53:00
6:53 PM,43.0,25.0,49,29.78,10.0,South,8.1,-,N/A,,Clear,170,2013-09-26 01:53:00
7:53 PM,39.0,26.1,60,29.80,10.0,Calm,Calm,-,N/A,,Clear,0,2013-09-26 02:53:00
8:53 PM,35.1,25.0,67,29.81,10.0,Calm,Calm,-,N/A,,Clear,0,2013-09-26 03:53:00
9:38 PM,37.4,26.6,65,29.87,10.0,Calm,Calm,-,N/A,,Mostly Cloudy,0,2013-09-26 04:38:00
9:53 PM,39.0,28.9,67,29.79,10.0,Variable,4.6,-,N/A,,Overcast,0,2013-09-26 04:53:00
10:53 PM,37.9,27.0,65,29.80,9.0,NE,8.1,-,0.00,,Overcast,40,2013-09-26 05:53:00
11:53 PM,34.0,25.0,70,29.81,10.0,Calm,Calm,-,N/A,,Clear,0,2013-09-26 06:53:00